Bremerton, WA

8:37 AM PDT on October 17, 2019 (GMT -0700)
Bremerton National

Weather History for KPWT - August, 2019

Change the Weather History Date:

Saturday, August 31, 2019

  Actual Average Record
Temperature  
Mean Temperature 67 °F -  
Max Temperature 78 °F 71 °F 89 °F (1998)
Min Temperature 57 °F 48 °F 41 °F (1999)
Cooling Degree Days 2    
Growing Degree Days 17 (Base 50)    
Moisture  
Dew Point 58 °F    
Average Humidity 78    
Maximum Humidity 97    
Minimum Humidity 56    
Precipitation  
Precipitation 0.02 in - - ()
Sea Level Pressure  
Sea Level Pressure 30.02 in    
Wind  
Wind Speed 4 mph ()    
Max Wind Speed 17 mph    
Max Gust Speed 24 mph    
Visibility 10.0 miles    
Events Rain    
Averages and records for this station are not official NWS values.
T = Trace of Precipitation, MM = Missing Value Source: Averaged Metar Reports

Daily Weather History Graph

Daily Weather History Graph

Search for Another Location

Airport or City:

Astronomy

Aug. 31, 2019 Rise Set
Actual Time 6:28 AM PDT 7:53 PM PDT
Civil Twilight 5:56 AM PDT 8:25 PM PDT
Nautical Twilight 5:17 AM PDT 9:03 PM PDT
Astronomical Twilight 4:35 AM PDT 9:45 PM PDT
Moon 7:53 AM PDT (8/31) 9:03 PM PDT (8/31)
Length of Visible Light 14h 29m
Length of Day
13h 25m
Waxing Crescent, 3% of the Moon is Illuminated
Aug 31
Waxing Crescent
Sep 5
First Quarter
Sep 13
Full
Sep 21
Last Quarter
Sep 28
New

Hourly Weather History & Observations

Time (PDT) Temp. Dew Point Humidity Pressure Visibility Wind Dir Wind Speed Gust Speed Precip Events Conditions
12:56 AM 62.1 °F 57.9 °F 86% 30.04 in 10.0 mi Calm Calm - N/A   Mostly Cloudy
1:56 AM 61.0 °F 57.9 °F 90% 30.03 in 10.0 mi Calm Calm - N/A   Clear
2:56 AM 59.0 °F 57.0 °F 93% 30.03 in 10.0 mi Calm Calm - N/A   Clear
3:56 AM 57.0 °F 55.9 °F 96% 30.03 in 10.0 mi Calm Calm - N/A   Clear
4:56 AM 57.0 °F 55.9 °F 96% 30.04 in 10.0 mi Calm Calm - N/A   Clear
5:56 AM 57.9 °F 57.0 °F 97% 30.04 in 10.0 mi Calm Calm - N/A   Mostly Cloudy
6:56 AM 57.9 °F 55.9 °F 93% 30.04 in 10.0 mi Calm Calm - N/A   Clear
7:56 AM 60.1 °F 57.9 °F 93% 30.05 in 10.0 mi SSW 3.5 mph - N/A   Clear
8:56 AM 62.1 °F 59.0 °F 90% 30.05 in 10.0 mi Calm Calm - 0.00 in Rain Light Rain
9:56 AM 63.0 °F 60.1 °F 90% 30.04 in 10.0 mi Calm Calm - 0.02 in   Partly Cloudy
10:56 AM 66.9 °F 60.1 °F 79% 30.04 in 10.0 mi WSW 6.9 mph - N/A   Scattered Clouds
11:56 AM 70.0 °F 57.9 °F 65% 30.04 in 10.0 mi SW 8.1 mph - N/A   Mostly Cloudy
12:56 PM 73.0 °F 60.1 °F 64% 30.02 in 10.0 mi WSW 10.4 mph - N/A   Scattered Clouds
1:56 PM 75.0 °F 60.1 °F 60% 30.01 in 10.0 mi SW 12.7 mph - N/A   Scattered Clouds
2:56 PM 73.9 °F 60.1 °F 62% 30.01 in 10.0 mi SW 11.5 mph - N/A   Scattered Clouds
3:56 PM 77.0 °F 60.1 °F 56% 30.00 in 10.0 mi WSW 13.8 mph 20.7 mph N/A   Scattered Clouds
4:56 PM 75.0 °F 60.1 °F 60% 30.00 in 10.0 mi WSW 17.3 mph 24.2 mph N/A   Clear
5:56 PM 73.9 °F 59.0 °F 59% 30.00 in 10.0 mi SW 16.1 mph - N/A   Clear
6:56 PM 72.0 °F 57.9 °F 61% 30.00 in 10.0 mi SW 12.7 mph - N/A   Clear
7:56 PM 68.0 °F 57.0 °F 68% 30.00 in 10.0 mi SW 12.7 mph - N/A   Clear
8:56 PM 64.0 °F 57.0 °F 78% 30.01 in 10.0 mi SSW 6.9 mph - N/A   Clear
9:56 PM 64.9 °F 57.0 °F 75% 30.02 in 10.0 mi SW 5.8 mph - N/A   Mostly Cloudy
10:56 PM 64.9 °F 57.0 °F 75% 30.02 in 10.0 mi Calm Calm - N/A   Mostly Cloudy
11:56 PM 60.1 °F 55.9 °F 86% 30.02 in 10.0 mi Calm Calm - N/A   Clear